FLOCK 4BE-32

Last updated on Mon Sep 16 2024 00:02:03 GMT+0000 (Coordinated Universal Time)

1 60497U 24149AF 24258.96257114 .00017385 00000+0 83768-3 0 9990 2 60497 97.4366 334.0561 0005945 30.6973 329.4608 15.18779492 4421
UTC large
Height (km)
Speed (km/s)
/
Latitude / Longitude
Inclination (degrees)
Orbital Period (minutes)
Azimuth
Elevation
Range (km)
Doppler Factor

Next 0 passes for location: London (51.5072 / 0.1276)

Sorry there are no passes over London.